Regional Weather Roundup
Issued by NWS

Home | Current Version | Previous Version | Graphics & Text | Print | Product List | Glossary On
Versions: 1 2 3 4 5 6 7 8 9 10 11 12 13 14 15 16 17 18 19 20 21 22 23 24 25 26 27 28 29 30 31 32 33 34 35 36 37 38 39 40 41 42 43 44 45 46 47 48 49 50
000
ASUS43 KOAX 181710
RWRNE

WEATHER ROUNDUP FOR NEBRASKA
NATIONAL WEATHER SERVICE OMAHA NE
1200 PM CDT WED OCT 18 2017

NOTES: SATELLITE DATA IS BEING USED TO AUGMENT CLOUD COVER ABOVE
       12000 FEET.
       "FAIR" INDICATES FEW OR NO CLOUDS BELOW 12,000 FEET WITH NO
       SIGNIFICANT WEATHER AND/OR OBSTRUCTIONS TO VISIBILITY.


NEZ001>004-019>022-054>056-181800-
NEBRASKA PANHANDLE

CITY           SKY/WX    TMP DP  RH WIND       PRES   REMARKS
SCOTTSBLUFF    SUNNY     70  19  14 NE14G20   30.11R
ALLIANCE       SUNNY     66  24  20 NE18      30.11R
CHADRON        SUNNY     63  26  24 NE9       30.12R
GORDON         FAIR      62  28  27 NE14      30.10R
KIMBALL        SUNNY     69  17  13 N15G22    30.15R
SIDNEY         SUNNY     71  16  12 N18G30    30.11R
$$

NEZ057>060-069>072-079>082-181800-
SOUTHWEST NEBRASKA

CITY           SKY/WX    TMP DP  RH WIND       PRES   REMARKS
NORTH PLATTE   SUNNY     74  28  18 N21G29    30.00R
IMPERIAL       SUNNY     78  12   8 N18G26    30.04R
LEXINGTON      SUNNY     73  31  21 N17G23    29.97R
MCCOOK         MOSUNNY   67  33  28 W10       29.99R
OGALLALA       SUNNY     73  23  15 N16G22    30.05R
$$

NEZ005>010-023>029-035>040-094-181800-
NORTH CENTRAL NEBRASKA

CITY           SKY/WX    TMP DP  RH WIND       PRES   REMARKS
VALENTINE      SUNNY     66  30  26 N20G28    30.05R
AINSWORTH      SUNNY     64  36  34 N17G26    30.03R
BROKEN BOW     SUNNY     70  32  24 N25G38    29.96R
O`NEILL        SUNNY     66  37  34 N18G31    29.97R
ORD            LGT RAIN  71  28  20 N23G30    29.94R
THEDFORD       SUNNY     68  32  26 N13G21    30.05R
$$

NEZ041-046>049-061>064-073>077-083>087-181800-
SOUTH CENTRAL NEBRASKA

CITY           SKY/WX    TMP DP  RH WIND       PRES   REMARKS
GRAND ISLAND   SUNNY     69  44  40 SW8       29.93R
AURORA         SUNNY     66  46  48 SW9       29.92S
HASTINGS       SUNNY     67  45  45 SW9       29.94S
HEBRON         SUNNY     67  47  49 S10       29.95F
HOLDREGE       CLOUDY    72  35  25 NW12G18   29.95R
KEARNEY        SUNNY     71  38  29 NW10      29.94S
YORK           SUNNY     66  48  52 SW10      29.92R
$$

NEZ011>018-030>034-042>045-181800-
NORTHEAST NEBRASKA

CITY           SKY/WX    TMP DP  RH WIND       PRES   REMARKS
NORFOLK        SUNNY     68  42  38 NW9       29.90R
ALBION         SUNNY     70  40  32 N8        29.92R
BLAIR          SUNNY     67  49  51 S13G18    29.91S
COLUMBUS       SUNNY     67  47  48 SW9       29.92R
FREMONT        SUNNY     66  48  51 S9        29.91S
TEKAMAH        SUNNY     69  47  45 S12       29.90S
WAYNE          PTSUNNY   66  42  42 W7        29.91R
$$

NEZ050>053-065>068-078-088>093-181800-
SOUTHEAST NEBRASKA

CITY           SKY/WX    TMP DP  RH WIND       PRES   REMARKS
LINCOLN        SUNNY     68  48  48 SW12      29.93F
OMAHA EPPLEY   MOSUNNY   66  48  52 S14       29.92F
BEATRICE       SUNNY     65  49  54 SW13      29.95F
FALLS CITY     SUNNY     66  46  48 S12       29.98S
NEBRASKA CITY  SUNNY     67  49  54 SW15      29.97R
PLATTSMOUTH    SUNNY     67  48  50 S14       29.93F
$$

NEZ044-045-051>053-067-181800-
OMAHA AREA

CITY           SKY/WX    TMP DP  RH WIND       PRES   REMARKS
OMAHA EPPLEY   MOSUNNY   66  48  52 S14       29.92F
BLAIR          SUNNY     67  49  51 S13G18    29.91S
FREMONT        SUNNY     66  48  51 S9        29.91S
MILLARD        SUNNY     69  51  51 S7        29.92F
OFFUTT AFB     SUNNY     67  48  51 S12       29.92F
PLATTSMOUTH    SUNNY     67  48  50 S14       29.93F
WAHOO          FAIR      66  46  48 S10       29.92R
$$



USA.gov is the U.S. government's official web portal to all federal, state and local government web resources and services.